Tracking 19795 objects as of 20-Jul-2019
HD Live streaming from Space Station
objects crossing your sky now

COSMOS 1275 DEB

Track COSMOS 1275 DEB now!
10-day predictions


NORAD ID: 42121
Int'l Code: 1981-053QH
Perigee: 858.2 km
Apogee: 923.8 km
Inclination: 82.9 °
Period: 102.6 minutes
Semi major axis: 7262 km
RCS: Unknown
Launch date: June 4, 1981
Source: Commonwealth of Independent States (former USSR) (CIS)
Launch site: PLESETSK MISSILE AND SPACE COMPLEX (PKMTR)

Note: This is SATELLITE DEBRIS
aabbcc
Your satellite tracking list
Your tracking list is empty




NASA's NSSDC Master Catalog

Two Line Element Set (TLE):
1 42121U 81053QH  19198.34609849 +.00000452 +00000-0 +27951-3 0  9996
2 42121 082.9257 062.2311 0045177 240.9581 118.7062 14.02865922262456
Source of the keplerian elements: AFSPC